This is the latest recevied weather packets stored in our database for station/object NO9B. If no packets are shown the sender has not sent any weather packets the latest 10 day(s).
| Time | Temp. | Humidity | Pressure | Rain* | Wind** | Luminosity | Snow |
|---|---|---|---|---|---|---|---|
| 1788126434 | 23.89° C | 86% | 1014.9 hPa | 0 mm | - | 35 W/m² | - |
| 1788126129 | 23.89° C | 86% | 1015.1 hPa | 0 mm | - | 41 W/m² | - |
| 1788125828 | 23.89° C | 86% | 1014.8 hPa | 0 mm | - | 45 W/m² | - |
| 1788125523 | 23.89° C | 85% | 1014.8 hPa | 0 mm | - | 51 W/m² | - |
| 1788125219 | 23.89° C | 85% | 1014.8 hPa | 0 mm | - | 51 W/m² | - |
| 1788124914 | 24.44° C | 84% | 1014.5 hPa | 0 mm | - | 42 W/m² | - |
| 1788124614 | 24.44° C | 83% | 1014.6 hPa | 0 mm | - | 32 W/m² | - |
| 1788124313 | 24.44° C | 83% | 1014.8 hPa | 0 mm | - | 32 W/m² | - |
| 1788124009 | 24.44° C | 82% | 1014.7 hPa | 0 mm | - | 37 W/m² | - |
| 1788123709 | 24.44° C | 82% | 1014.7 hPa | 0 mm | - | 39 W/m² | - |
| 1788123406 | 25° C | 82% | 1014.7 hPa | 0 mm | - | 48 W/m² | - |
| 1788123101 | 25° C | 82% | 1015 hPa | 0 mm | - | 58 W/m² | - |
| 1788122801 | 25° C | 81% | 1014.8 hPa | 0 mm | - | 46 W/m² | - |
| 1788122500 | 25° C | 80% | 1014.8 hPa | 0 mm | - | 40 W/m² | - |
| 1788122197 | 25° C | 81% | 1014.8 hPa | 0 mm | - | 44 W/m² | - |
| 1788121896 | 25° C | 80% | 1014.8 hPa | 0 mm | - | 37 W/m² | - |
| 1788121596 | 25° C | 80% | 1014.8 hPa | 0 mm | - | 29 W/m² | - |
| 1788121292 | 25° C | 79% | 1014.7 hPa | 0 mm | - | 27 W/m² | - |
| 1788120991 | 25° C | 78% | 1014.9 hPa | 0 mm | - | 29 W/m² | - |
| 1788120687 | 25.56° C | 77% | 1015 hPa | 0 mm | - | 32 W/m² | - |
| 1788120382 | 25.56° C | 77% | 1014.8 hPa | 0 mm | - | 40 W/m² | - |
| 1788120081 | 25.56° C | 76% | 1015 hPa | 0 mm | - | 52 W/m² | - |
| 1788119777 | 26.11° C | 76% | 1015.1 hPa | 0 mm | - | 73 W/m² | - |
| 1788119475 | 26.11° C | 75% | 1015.1 hPa | 0 mm | - | 78 W/m² | - |
| 1788119175 | 26.11° C | 73% | 1015.1 hPa | 0 mm | - | 92 W/m² | - |
* Rain latest hour (hover to see other rain measurements)
** Current wind speed in m/s (hover to see current wind gust speed)